Wind_Speed
5 5 5 6 6 6 6 6 5 5 5 4 4 3 3 2 2 2 3 3 3 3 3 3 2 1 0 1 1 1 1 1 2 2 1 2 2 3 3 2 2 2 2
5 5 6 6 6 6 6 6 5 4 4 3 3 2 2 2 1 2 3 3 3 3 2 2 2 1 1 0 1 1 1 1 1 1 1 2 3 4 4 3 3 3 3
6 5 5 5 6 6 6 6 6 5 3 3 2 2 3 3 2 3 3 3 3 2 2 2 1 0 0 1 1 1 1 0 1 1 1 2 3 4 4 3 3 3 3
6 5 5 5 6 6 6 6 6 5 3 3 3 3 3 4 3 3 3 2 1 1 1 1 1 0 0 1 0 0 0 1 1 1 1 1 2 3 4 3 3 4 3
6 6 6 6 6 5 5 5 6 5 4 3 2 3 3 3 3 3 2 1 2 1 1 1 1 1 0 1 1 0 1 1 1 1 1 1 2 2 2 3 3 3 3
6 6 6 6 6 6 5 5 5 4 4 3 2 2 2 3 3 3 3 3 3 2 1 1 2 1 1 1 1 1 1 1 1 1 2 2 2 2 2 3 3 3 4
5 5 6 6 6 6 6 5 5 4 3 3 3 2 2 2 2 2 3 3 2 2 1 1 1 1 1 1 0 1 1 1 1 1 2 2 2 2 2 3 3 3 3
6 6 6 6 6 6 6 6 5 5 4 4 4 4 3 3 3 2 2 2 2 2 1 2 2 1 2 0 0 0 1 0 0 1 1 1 2 2 2 3 4 3 4
8 8 7 7 6 5 5 5 5 5 5 4 4 4 4 3 3 2 1 2 2 2 1 2 2 2 2 1 0 0 1 0 0 1 1 1 2 3 3 4 4 3 4
9 9 8 7 7 6 6 5 5 5 5 4 4 3 3 4 3 2 2 2 2 2 2 2 2 2 2 2 1 1 0 1 1 1 1 2 2 3 3 3 4 4 4
9 9 9 8 6 6 5 5 5 5 5 4 4 4 3 3 3 3 3 2 2 2 2 2 2 2 2 2 2 1 0 1 1 1 1 1 2 2 3 3 3 3 2
9 8 8 7 7 6 5 5 5 5 5 5 4 4 3 3 3 3 3 3 3 3 2 2 2 2 2 2 1 2 1 1 1 2 1 2 2 2 2 3 2 3 3
9 8 9 8 7 7 6 6 5 5 5 5 4 4 4 4 4 4 3 3 3 3 2 1 1 2 2 2 1 2 1 2 1 1 2 1 1 2 2 2 2 2 3
9 8 8 7 6 6 6 6 5 5 5 5 4 4 3 3 4 4 3 3 4 3 2 2 2 2 2 3 2 2 2 2 2 2 2 2 2 2 2 2 2 2 3
9 8 7 6 5 5 5 5 5 5 4 4 4 4 3 4 3 4 3 4 4 4 4 3 3 2 2 2 2 2 2 2 2 2 2 2 2 2 2 3 3 3 3
9 7 6 5 5 5 4 4 4 4 4 3 4 4 4 4 4 4 4 3 4 4 4 3 3 2 2 2 2 2 2 2 2 2 2 3 3 3 3 3 3 4 4
9 8 7 6 5 5 4 4 4 4 4 4 4 5 4 5 5 5 5 4 4 4 4 4 4 4 3 3 3 3 3 3 4 4 4 4 5 5 4 4 4 5 4
9 8 8 8 6 5 5 4 4 5 4 4 5 5 5 5 5 5 6 5 5 4 4 4 4 4 4 4 5 5 5 5 5 5 5 6 6 6 6 5 6 5 5
8 8 8 8 7 6 5 4 4 5 5 5 5 5 5 6 6 5 5 6 5 4 5 5 6 5 5 5 5 5 6 6 6 6 7 7 7 7 6 7 7 8 7
7 7 7 7 6 6 6 6 6 6 5 5 5 6 5 6 6 6 6 6 7 6 6 6 6 6 5 6 6 7 7 8 7 8 8 8 8 8 8 8 8 9 8
6 6 6 6 6 6 6 6 6 6 5 5 5 6 6 7 7 7 7 7 7 7 7 7 7 7 7 7 7 8 8 9 9 10 10 9 9 9 10 9 9 10 9
4 5 5 5 5 5 5 6 6 6 6 5 5 6 8 8 9 9 9 9 8 8 7 8 8 8 8 9 9 9 9 10 11 11 11 10 10 10 11 11 11 11 11
3 4 4 4 4 5 5 5 6 6 6 6 6 7 8 9 10 9 10 10 9 8 8 9 9 9 9 9 9 9 9 10 11 11 11 11 10 11 11 11 12 12 12
3 3 4 5 5 5 5 5 5 6 6 7 7 8 9 9 10 10 11 11 10 10 10 10 9 10 10 10 10 10 10 10 11 11 12 11 11 11 11 11 12 13 12
2 3 5 6 6 6 6 6 5 6 6 8 9 9 10 10 11 12 12 12 11 11 11 11 10 11 12 12 12 11 11 10 11 11 11 11 11 11 12 12 13 13 13
4 4 6 7 8 8 7 6 6 6 7 8 9 9 10 11 11 12 12 12 12 11 12 12 12 12 12 12 12 12 11 11 11 12 11 11 12 12 12 13 13 14 15
Wind_Direction
92 98 100 96 97 99 104 108 111 115 114 113 108 102 92 84 81 95 108 102 106 111 120 119 121 118 116 126 122 121 151 175 193 201 195 202 202 192 201 200 198 202 191
94 96 104 104 104 102 107 109 108 120 119 113 102 90 73 63 80 127 117 109 108 104 107 120 126 120 63 75 126 109 106 151 203 217 223 240 213 204 208 208 213 211 209
99 103 108 109 109 105 108 111 111 117 117 107 95 79 68 64 107 140 129 114 108 106 115 100 96 122 93 88 86 120 137 206 174 223 257 250 219 213 207 207 215 218 217
102 109 107 113 113 112 112 109 108 106 106 104 96 77 68 71 92 123 121 112 112 130 134 104 68 56 208 256 5 62 224 252 237 224 231 238 238 231 218 211 219 222 213
91 104 103 101 112 119 122 118 107 97 103 101 94 72 62 66 77 102 91 98 98 91 59 56 53 40 320 287 289 113 234 243 248 194 174 223 235 229 213 217 222 237 228
90 103 104 106 107 110 113 119 113 107 100 100 93 73 65 69 71 76 80 95 84 68 54 55 33 28 6 309 280 223 193 222 214 174 195 223 227 222 215 219 228 239 232
95 108 107 110 107 107 106 104 107 107 93 90 86 76 81 74 73 72 79 73 52 59 51 46 9 337 324 308 265 172 177 210 188 204 215 225 231 227 217 222 234 237 233
95 107 111 110 106 105 104 101 97 88 92 90 83 71 66 70 77 96 68 41 47 50 63 52 25 347 329 294 170 120 140 122 177 236 255 241 235 233 218 221 230 230 228
93 99 106 104 102 108 105 96 89 87 81 84 79 67 54 50 56 59 29 34 38 43 46 39 25 13 15 48 95 157 210 246 178 259 238 227 238 249 245 233 230 248 247
90 91 98 91 91 98 102 99 95 87 77 82 69 58 53 42 39 36 23 22 28 48 49 40 29 37 40 39 41 57 294 296 258 245 240 228 235 251 229 233 249 260 254
76 84 90 87 84 86 90 88 86 84 80 72 70 60 51 42 38 30 27 24 23 29 31 29 23 22 28 23 35 35 298 299 293 262 251 236 244 235 234 239 251 264 256
69 73 80 88 87 84 85 85 81 78 73 64 58 57 53 47 37 24 30 33 23 15 8 14 12 4 353 0 23 27 16 311 288 282 252 249 250 239 232 241 261 267 255
63 69 73 79 82 78 80 85 83 76 68 63 58 61 60 51 38 25 27 24 18 17 19 14 1 0 350 348 344 351 0 5 321 303 268 273 275 255 253 248 253 247 257
66 71 78 72 67 70 76 78 77 74 66 60 60 62 57 49 39 31 27 21 16 16 13 1 354 353 4 7 354 360 10 350 347 330 308 293 290 282 265 264 259 251 255
68 73 81 78 64 65 72 75 74 69 65 56 49 46 36 26 26 22 24 17 10 8 3 355 347 337 351 356 353 358 356 343 351 343 331 311 301 291 283 272 256 265 266
63 71 73 71 70 69 75 71 66 58 54 45 33 26 19 15 10 3 8 360 354 353 351 347 342 322 315 331 337 338 325 301 300 325 318 323 315 295 280 266 267 271 271
62 64 62 67 70 71 76 68 54 52 50 39 25 16 11 6 2 358 0 359 352 345 347 344 335 323 312 304 305 306 306 303 299 299 297 294 292 289 279 279 276 270 271
60 55 54 56 58 60 63 59 46 53 46 32 19 12 9 7 6 2 359 355 353 353 352 347 338 324 307 298 300 298 293 292 294 291 288 287 287 285 283 280 274 277 274
59 54 51 51 54 55 50 43 35 39 30 24 18 9 10 13 9 3 353 347 343 343 338 334 327 319 306 304 301 298 293 288 288 289 284 282 283 280 277 279 272 269 264
56 51 48 49 49 50 44 34 27 25 19 17 13 7 8 7 0 350 343 339 336 333 328 324 318 313 307 302 300 296 291 290 284 281 280 278 281 276 272 276 273 267 265
50 41 42 41 39 35 31 26 19 19 12 8 7 7 2 356 352 347 342 341 335 330 327 322 315 310 305 298 294 291 286 287 283 278 276 276 276 276 277 274 271 271 271
46 38 35 28 24 18 16 13 9 5 0 357 1 358 355 350 347 348 344 338 331 329 329 328 322 315 306 298 294 291 286 287 287 282 277 278 276 274 272 267 267 268 271
38 30 23 11 6 3 360 358 355 354 353 350 346 346 345 344 342 342 339 336 328 328 326 321 316 311 311 306 300 294 286 285 285 283 280 275 274 274 273 270 270 271 269
8 4 359 350 345 342 338 337 337 338 339 339 338 336 337 338 337 336 334 332 331 327 321 315 310 307 306 305 301 296 286 288 286 282 279 275 276 276 275 274 277 272 272
330 341 339 334 329 327 323 320 321 322 326 330 331 328 329 331 332 331 329 330 326 324 318 310 306 306 303 302 301 299 290 287 289 287 282 281 281 280 278 277 274 272 273
306 317 321 319 321 319 312 310 311 316 320 324 326 323 321 323 328 327 324 326 325 320 319 316 312 311 308 307 302 297 291 285 290 287 285 283 283 281 280 279 278 273 271
Height
5888 5888 5888 5889 5889 5890 5890 5890 5891 5891 5892 5892 5893 5893 5893 5892 5892 5892 5892 5893 5893 5893 5894 5894 5894 5894 5894 5894 5894 5894 5893 5893 5893 5893 5893 5893 5893 5893 5893 5893 5893 5893 5893
5889 5889 5889 5889 5890 5890 5891 5891 5892 5892 5893 5893 5893 5893 5892 5891 5890 5891 5892 5893 5893 5893 5894 5894 5894 5894 5894 5894 5894 5894 5894 5893 5893 5893 5893 5893 5892 5892 5892 5893 5893 5893 5893
5889 5889 5890 5890 5891 5891 5892 5892 5893 5893 5893 5893 5893 5893 5892 5890 5888 5890 5892 5893 5893 5893 5894 5894 5894 5894 5894 5894 5894 5893 5893 5893 5893 5893 5893 5892 5892 5892 5892 5892 5892 5892 5893
5889 5890 5890 5891 5891 5892 5892 5893 5894 5894 5894 5894 5894 5894 5893 5891 5890 5891 5893 5893 5893 5893 5893 5894 5894 5894 5894 5894 5893 5893 5893 5893 5893 5893 5893 5892 5892 5892 5892 5892 5892 5892 5892
5889 5890 5891 5891 5892 5893 5893 5894 5894 5895 5895 5895 5895 5895 5894 5893 5893 5893 5893 5893 5894 5894 5893 5893 5894 5893 5893 5893 5893 5893 5893 5892 5892 5892 5892 5892 5892 5892 5892 5891 5891 5891 5891
5889 5890 5891 5892 5892 5893 5894 5895 5895 5895 5895 5896 5896 5895 5895 5895 5895 5895 5894 5894 5894 5894 5894 5894 5893 5893 5893 5893 5893 5893 5893 5892 5891 5892 5892 5892 5891 5891 5891 5891 5891 5891 5891
5888 5889 5891 5892 5893 5894 5895 5895 5896 5896 5896 5896 5896 5896 5896 5896 5896 5896 5895 5895 5894 5894 5893 5893 5893 5893 5893 5893 5892 5892 5892 5892 5891 5892 5891 5891 5891 5891 5891 5891 5890 5890 5890
5888 5889 5891 5893 5894 5895 5895 5896 5896 5896 5896 5897 5897 5897 5897 5896 5896 5896 5896 5895 5895 5894 5893 5893 5893 5893 5892 5892 5892 5892 5892 5892 5891 5891 5891 5891 5891 5891 5890 5890 5890 5890 5890
5889 5890 5892 5894 5895 5896 5896 5897 5897 5897 5897 5897 5897 5897 5897 5896 5896 5896 5896 5895 5894 5894 5893 5893 5893 5892 5892 5892 5892 5892 5892 5891 5891 5891 5891 5890 5890 5890 5890 5890 5890 5889 5889
5892 5893 5894 5896 5896 5897 5898 5898 5898 5898 5898 5898 5898 5898 5898 5897 5897 5896 5896 5895 5894 5893 5893 5893 5892 5892 5892 5892 5892 5892 5892 5891 5891 5890 5890 5890 5890 5890 5889 5889 5889 5889 5889
5896 5896 5896 5897 5898 5898 5898 5898 5898 5899 5899 5899 5899 5898 5898 5898 5897 5896 5895 5895 5894 5893 5892 5892 5892 5892 5892 5892 5892 5891 5891 5891 5890 5890 5889 5889 5889 5889 5889 5889 5888 5888 5888
5898 5898 5897 5898 5899 5899 5899 5899 5899 5899 5899 5899 5899 5899 5898 5898 5897 5896 5895 5894 5893 5892 5891 5891 5892 5892 5892 5892 5892 5891 5891 5891 5890 5889 5889 5889 5888 5888 5888 5887 5887 5887 5887
5899 5899 5899 5899 5900 5900 5900 5900 5900 5900 5899 5899 5899 5899 5898 5898 5897 5896 5895 5894 5893 5892 5891 5891 5891 5891 5891 5891 5891 5891 5891 5890 5889 5889 5889 5888 5888 5887 5887 5886 5886 5886 5886
5900 5900 5900 5900 5900 5900 5900 5900 5900 5900 5900 5899 5899 5899 5898 5898 5897 5897 5896 5895 5893 5892 5891 5891 5891 5891 5891 5891 5891 5890 5890 5890 5889 5889 5888 5888 5887 5887 5886 5886 5885 5885 5885
5902 5901 5901 5901 5901 5901 5901 5901 5901 5900 5900 5899 5899 5899 5898 5898 5897 5897 5896 5895 5894 5893 5892 5891 5891 5891 5891 5890 5890 5890 5890 5889 5889 5888 5888 5887 5887 5886 5885 5885 5885 5884 5884
5903 5902 5902 5902 5902 5901 5901 5901 5901 5900 5900 5899 5899 5899 5898 5898 5897 5897 5896 5895 5894 5893 5892 5892 5891 5891 5890 5890 5890 5889 5889 5889 5888 5887 5887 5886 5886 5885 5885 5884 5884 5883 5883
5904 5903 5902 5901 5901 5901 5901 5901 5900 5900 5899 5899 5899 5898 5898 5897 5897 5896 5895 5894 5893 5893 5892 5891 5891 5890 5890 5889 5889 5889 5888 5888 5887 5886 5886 5885 5885 5884 5883 5883 5883 5882 5881
5905 5904 5903 5902 5901 5901 5901 5901 5901 5900 5899 5899 5899 5898 5897 5897 5896 5895 5895 5894 5893 5892 5891 5891 5890 5889 5889 5889 5888 5888 5887 5886 5886 5885 5884 5884 5883 5883 5882 5882 5881 5881 5880
5906 5905 5904 5903 5902 5902 5902 5902 5901 5900 5900 5899 5899 5898 5897 5896 5896 5895 5894 5893 5892 5891 5891 5890 5889 5889 5888 5887 5887 5886 5885 5885 5884 5883 5883 5882 5881 5881 5881 5880 5879 5879 5878
5906 5905 5905 5904 5903 5903 5902 5902 5901 5901 5900 5899 5899 5898 5897 5896 5895 5894 5893 5892 5891 5890 5890 5889 5888 5887 5886 5885 5885 5884 5883 5883 5882 5881 5881 5880 5879 5879 5879 5878 5877 5876 5875
5906 5906 5905 5905 5904 5903 5903 5902 5901 5901 5900 5899 5898 5897 5896 5895 5894 5892 5891 5891 5890 5889 5888 5887 5886 5885 5884 5883 5883 5882 5881 5880 5879 5878 5878 5877 5877 5876 5876 5875 5875 5874 5873
5906 5905 5905 5904 5904 5903 5903 5902 5901 5900 5899 5899 5898 5896 5895 5894 5892 5891 5890 5889 5888 5887 5886 5885 5884 5883 5882 5881 5880 5879 5878 5878 5876 5875 5875 5874 5874 5873 5873 5872 5872 5871 5871
5905 5905 5905 5905 5904 5903 5903 5902 5901 5900 5899 5898 5897 5896 5894 5893 5891 5890 5889 5887 5886 5885 5884 5883 5882 5881 5880 5878 5877 5877 5876 5875 5873 5872 5871 5871 5871 5870 5869 5869 5868 5867 5867
5905 5905 5905 5904 5904 5903 5902 5901 5900 5899 5898 5896 5895 5894 5893 5891 5890 5888 5887 5885 5884 5883 5881 5880 5879 5878 5877 5875 5874 5873 5872 5871 5870 5869 5868 5868 5867 5866 5865 5865 5864 5864 5863
5904 5904 5903 5903 5902 5901 5900 5899 5898 5897 5896 5895 5894 5892 5891 5890 5888 5886 5884 5883 5881 5880 5879 5877 5876 5875 5873 5872 5871 5869 5868 5867 5867 5865 5864 5863 5863 5863 5862 5861 5860 5859 5859
5902 5902 5902 5901 5900 5899 5898 5897 5896 5895 5894 5893 5892 5890 5889 5887 5886 5884 5882 5880 5879 5877 5876 5874 5872 5870 5869 5868 5867 5866 5864 5864 5863 5862 5861 5859 5859 5858 5858 5857 5856 5855 5854